Date String (YYYY-MM-DD hh:mm:ss) UTC,Instrument flags,Ambient pressure (hPa),Sample flow (lpm),Bypass flow (lpm),Sample temperature (°C),Ambient temperature (°C),ASC tube jacket temperature (°C),LED temperature (°C),Box temperature (°C),Sample RH (%),Span deviation,Mass concentration (μg/m³),Mass concentration (μg/m³),Mass concentration (μg/m³)
DateTimeUTC,F1_M11,P_M11,Q1_M11,Q2_M11,T1_M11,T2_M11,T3_M11,T4_M11,T5_M11,U1_M11,ZSPAN_M11,X0_M11,X2_M11,X1_M11
2022-03-03 07:00:00,,0828.2,5.00,0.00,28.5,27.7,00.0,37.6,30.3,09.5,0000.0,0001.31,0000.70,0000.49
2022-03-03 07:01:00,,0828.3,5.00,0.00,28.5,27.7,00.0,37.6,30.3,09.8,0000.0,0001.26,0000.68,0000.48
2022-03-03 07:02:00,,0828.5,5.00,0.00,28.5,27.7,00.0,37.6,30.3,09.8,0000.0,0001.19,0000.66,0000.48
2022-03-03 07:03:00,,0828.3,4.99,0.00,28.5,27.7,00.0,37.6,30.3,10.0,0000.0,0001.10,0000.63,0000.48
2022-03-03 07:04:00,,0828.2,5.01,0.00,28.5,27.7,00.0,37.6,30.2,10.0,0000.0,0001.07,0000.63,0000.49
2022-03-03 07:05:00,,0828.4,5.00,0.00,28.5,27.7,00.0,37.6,30.2,09.9,0000.0,0001.15,0000.65,0000.50
2022-03-03 07:06:00,,0828.1,4.99,0.00,28.5,27.7,00.0,37.6,30.3,09.8,0000.0,0002.87,0000.69,0000.51
2022-03-03 07:07:00,,0828.2,5.00,0.00,28.5,27.7,00.0,37.6,30.3,09.7,0000.0,0002.96,0000.73,0000.52
2022-03-03 07:08:00,,0828.2,4.99,0.00,28.5,27.7,00.0,37.6,30.2,09.8,0000.0,0003.01,0000.75,0000.53
2022-03-03 07:09:00,,0828.2,5.00,0.00,28.5,27.7,00.0,37.6,30.3,09.7,0000.0,0003.00,0000.76,0000.54
2022-03-03 07:10:00,,0828.2,5.01,0.00,28.5,27.7,00.0,37.6,30.3,09.6,0000.0,0002.92,0000.74,0000.56
2022-03-03 07:11:00,,0828.2,5.00,0.00,28.5,27.7,00.0,37.6,30.2,09.6,0000.0,0003.05,0000.77,0000.58
2022-03-03 07:12:00,,0828.2,5.00,0.00,28.5,27.7,00.0,37.6,30.2,09.5,0000.0,0003.24,0000.82,0000.61
2022-03-03 07:13:00,,0828.3,5.00,0.00,28.5,27.7,00.0,37.6,30.2,09.5,0000.0,0003.84,0000.88,0000.64
2022-03-03 07:14:00,,0828.3,4.99,0.00,28.5,27.7,00.0,37.6,30.2,09.5,0000.0,0004.53,0000.95,0000.67
2022-03-03 07:15:00,,0828.3,5.00,0.00,28.5,27.7,00.0,37.6,30.2,09.6,0000.0,0004.61,0000.99,0000.70
2022-03-03 07:16:00,,0828.3,4.99,0.00,28.5,27.7,00.0,37.5,30.2,09.5,0000.0,0004.69,0001.04,0000.73
2022-03-03 07:17:00,,0828.3,5.01,0.00,28.5,27.7,00.0,37.5,30.2,09.5,0000.0,0003.16,0001.05,0000.76
2022-03-03 07:18:00,,0828.3,5.00,0.00,28.5,27.7,00.0,37.5,30.2,09.5,0000.0,0004.04,0001.06,0000.79
2022-03-03 07:19:00,,0828.3,5.00,0.00,28.5,27.7,00.0,37.5,30.2,09.5,0000.0,0004.35,0001.10,0000.84
2022-03-03 07:20:00,,0828.2,5.00,0.00,28.5,27.7,00.0,37.5,30.2,09.5,0000.0,0004.77,0001.17,0000.87
2022-03-03 07:21:00,,0828.3,5.01,0.00,28.5,27.7,00.0,37.5,30.2,09.5,0000.0,0005.47,0001.24,0000.90
2022-03-03 07:22:00,,0828.2,5.00,0.00,28.5,27.7,00.0,37.5,30.2,09.5,0000.0,0005.73,0001.29,0000.92
2022-03-03 07:23:00,,0828.2,5.00,0.00,28.5,27.7,00.0,37.5,30.2,09.5,0000.0,0005.67,0001.31,0000.95
2022-03-03 07:24:00,,0828.3,5.00,0.00,28.4,27.7,00.0,37.5,30.2,09.5,0000.0,0005.47,0001.33,0000.96
2022-03-03 07:25:00,,0828.7,5.00,0.00,28.4,27.7,00.0,37.5,30.2,09.5,0000.0,0004.96,0001.33,0000.98
2022-03-03 07:26:00,,0828.2,5.01,0.00,28.5,27.7,00.0,37.5,30.2,09.5,0000.0,0005.37,0001.34,0000.99
2022-03-03 07:27:00,,0828.2,5.00,0.00,28.5,27.7,00.0,37.5,30.2,09.5,0000.0,0005.75,0001.36,0001.01
2022-03-03 07:28:00,,0828.2,5.00,0.00,28.5,27.7,00.0,37.5,30.3,09.4,0000.0,0005.86,0001.38,0001.02
2022-03-03 07:29:00,,0828.2,5.00,0.00,28.5,27.7,00.0,37.5,30.3,09.4,0000.0,0005.15,0001.42,0001.03
2022-03-03 07:30:00,,0828.2,5.00,0.00,28.5,27.7,00.0,37.5,30.3,09.4,0000.0,0005.47,0001.45,0001.04
2022-03-03 07:31:00,,0828.2,4.99,0.00,28.5,27.7,00.0,37.5,30.3,09.4,0000.0,0005.81,0001.47,0001.07
2022-03-03 07:32:00,,0828.2,5.00,0.00,28.5,27.7,00.0,37.5,30.2,09.6,0000.0,0005.37,0001.49,0001.08
2022-03-03 07:33:00,,0828.4,5.00,0.00,28.5,27.7,00.0,37.5,30.2,09.7,0000.0,0005.38,0001.47,0001.09
2022-03-03 07:34:00,,0828.5,5.00,0.00,28.5,27.7,00.0,37.5,30.2,09.6,0000.0,0005.73,0001.52,0001.10
2022-03-03 07:35:00,,0828.3,5.00,0.00,28.5,27.7,00.0,37.5,30.2,09.6,0000.0,0005.68,0001.56,0001.12
2022-03-03 07:36:00,,0828.2,5.00,0.00,28.5,27.7,00.0,37.5,30.2,09.6,0000.0,0005.54,0001.55,0001.13
2022-03-03 07:37:00,,0828.2,5.01,0.00,28.5,27.7,00.0,37.5,30.2,09.5,0000.0,0005.16,0001.60,0001.14
2022-03-03 07:38:00,,0828.2,5.00,0.00,28.5,27.7,00.0,37.5,30.3,09.5,0000.0,0004.89,0001.64,0001.15
2022-03-03 07:39:00,,0828.1,5.00,0.00,28.5,27.7,00.0,37.5,30.2,09.5,0000.0,0004.94,0001.67,0001.15
2022-03-03 07:40:00,,0828.1,4.99,0.00,28.5,27.7,00.0,37.5,30.3,09.5,0000.0,0004.97,0001.71,0001.16
2022-03-03 07:41:00,,0828.1,5.00,0.00,28.5,27.7,00.0,37.5,30.3,09.5,0000.0,0004.51,0001.76,0001.16
2022-03-03 07:42:00,,0828.1,5.00,0.00,28.5,27.7,00.0,37.5,30.2,09.5,0000.0,0003.86,0001.76,0001.15
2022-03-03 07:43:00,,0828.2,5.00,0.00,28.5,27.7,00.0,37.5,30.3,09.4,0000.0,0003.68,0001.72,0001.16
2022-03-03 07:44:00,,0828.1,5.00,0.00,28.5,27.7,00.0,37.5,30.3,09.5,0000.0,0003.30,0001.72,0001.17
2022-03-03 07:45:00,,0828.1,5.00,0.00,28.5,27.7,00.0,37.5,30.3,09.5,0000.0,0002.88,0001.69,0001.19
2022-03-03 07:46:00,,0828.1,5.01,0.00,28.5,27.7,00.0,37.5,30.3,09.6,0000.0,0002.75,0001.67,0001.18
2022-03-03 07:47:00,,0828.1,5.00,0.00,28.5,27.7,00.0,37.5,30.3,09.6,0000.0,0002.79,0001.68,0001.17
2022-03-03 07:48:00,,0828.0,5.01,0.00,28.5,27.7,00.0,37.5,30.2,09.6,0000.0,0002.75,0001.68,0001.19
2022-03-03 07:49:00,,0828.0,5.01,0.00,28.5,27.7,00.0,37.5,30.2,09.6,0000.0,0002.62,0001.62,0001.19
2022-03-03 07:50:00,,0828.1,4.99,0.00,28.5,27.7,00.0,37.5,30.2,09.5,0000.0,0002.60,0001.61,0001.22
2022-03-03 07:51:00,,0828.0,4.99,0.00,28.5,27.7,00.0,37.5,30.2,09.5,0000.0,0002.44,0001.59,0001.25
2022-03-03 07:52:00,,0828.0,5.00,0.00,28.5,27.6,00.0,37.5,30.2,09.4,0000.0,0002.46,0001.58,0001.27
2022-03-03 07:53:00,,0828.0,5.00,0.00,28.4,27.6,00.0,37.5,30.2,09.4,0000.0,0003.22,0001.58,0001.29
2022-03-03 07:54:00,,0828.0,5.00,0.00,28.4,27.6,00.0,37.5,30.2,09.4,0000.0,0003.91,0001.63,0001.32
2022-03-03 07:55:00,,0828.0,5.01,0.00,28.4,27.6,00.0,37.5,30.2,09.4,0000.0,0004.32,0001.66,0001.33
2022-03-03 07:56:00,,0828.0,4.99,0.00,28.4,27.6,00.0,37.4,30.2,09.4,0000.0,0004.77,0001.68,0001.34
2022-03-03 07:57:00,,0828.1,5.01,0.00,28.4,27.6,00.0,37.4,30.2,09.5,0000.0,0005.52,0001.73,0001.37
2022-03-03 07:58:00,,0828.1,4.99,0.00,28.4,27.6,00.0,37.4,30.2,09.5,0000.0,0006.28,0001.74,0001.39
2022-03-03 07:59:00,,0828.0,4.99,0.00,28.4,27.6,00.0,37.4,30.2,09.6,0000.0,0006.32,0001.75,0001.41
